Weather in Pechory

Russia / Pskov Oblast     57°48′50″N   27°36′32″E
temp.,
°C
wind,
m/s
gust,
m/s
humid.,
%
clouds,
%
prec.,
mm/h
press.,
hPa
HPBL,
m
14 may, fri
fri1400:00+10ese399324 0.2 1009507
03:00+8se389877 0.2 1009315
06:00+8ese279449 0.0 1009265
09:00+10ese4108383 0.0 1008506
12:00+12se5108698 0.1 1008743
15:00+15se41078100 0.4 10071168
18:00+13sse5118898 0.9 1007746
21:00+12sse389394 1.0 1007411
15 may, sat
sat1500:00+10se269814 0.0 1007120
03:00+9se239772 0.0 100751
06:00+11se239268 0.0 100799
09:00+16se237579 0.0 1006424
12:00+19sse226465 0.8 10061119
15:00+19wnw116797 3.6 10051038
18:00+17nnw2483100 3.8 1005367
21:00+14nw2390100 5.1 100660
16 may, sun
sun1600:00+11wnw399358 0.0 1007189
03:00+9wnw3896100 0.0 1008171
06:00+10nw279878 0.2 1008243
09:00+13nw248219 0.2 1009400
12:00+19nnw225837 0.0 10091150
15:00+21nne1250100 0.3 10091886
18:00+18e23738 0.6 1009374
21:00+14ese228636 0.8 100934
17 may, mon
mon1700:00+12se24925 0.0 101079
03:00+11se289777 0.0 1010145
06:00+11sse289419 0.0 1009171
09:00+16se597481 0.0 1009508
12:00+20se61160100 0.1 10081578
15:00+15sse51286100 1.6 1008992
18:00+14sw3891100 1.2 1008446
21:00+12wnw2397100 1.9 1008121
18 may, tue
tue1800:00+10nw2497100 0.0 1009177
03:00+9nnw2596100 0.0 1007165
06:00+8n2598100 0.0 1006149
09:00+12nnw3386100 0.0 1006454
12:00+14nnw2278100 0.0 1005658
15:00+15nnw237473 0.1 1004774
18:00+16n1166100 0.0 10031012
21:00+13ene118037 0.0 100310